Other Public Products
Issued by NWS Charleston, SC

Home | Current Version | Previous Version | Text Only | Print | Product List | Glossary On
Versions: 1 2 3 4 5 6 7 8 9 10 11 12 13 14 15 16 17 18 19 20 21 22 23 24 25 26 27 28 29 30 31 32 33 34 35 36 37 38 39 40 41 42 43 44 45 46 47 48 49 50
316
FPUS82 KCHS 192012
OPUCHS

TEST...KCHS/KSAV Gateway Observations...TEST
National Weather Service Charleston SC
300 PM EST FRI JAN 19 2018

NOTE: "fair" indicates few or no clouds below 12,000 feet with no
significant weather and/or obstructions to visibility.

SCZ050-WAZ558-NCZ071-TXZ119-213-PAZ071-DCZ001-FLZ074-172-MI076-
NYZ176-178-MAZ016-IL014-TNZ027-NJZ106-GAZ044-MD014-192100-

...Gateway Observations for Charleston International...

CITY           SKY/WX    TMP DP  RH WIND       PRES   REMARKS
Chas Airport   FAIR      61  19  19 SW10      30.21F
Seattle        LGT RAIN  46  37  71 S13G21    29.90S
Charlotte      FAIR      54  19  25 W3        30.17F
Dallas DFW     MOSUNNY   57  39  51 S23       30.07F
Dallas Love    PTSUNNY   53  38  56 S17       30.10F
Philladelphia  FAIR      45  16  31 W16       30.03F
Wash National  FAIR      50  11  20 S13       30.05S
Baltimore      FAIR      50  14  23 S8        30.03F
Miami          PTSUNNY   72  52  49 E14G24    30.20F
Detroit        PTSUNNY   35  22  58 SW18      29.86F WCI  24
Newark         PTSUNNY   38  16  40 SW10      29.98F WCI  31
Laguardia      PTSUNNY   37  15  40 W7        29.97F WCI  32
J F K          PTSUNNY   37  17  44 SW13      30.00F WCI  29
Boston Logan   CLOUDY    33  20  58 W9        29.93R WCI  25
Ft. Lauderdale PTSUNNY   66  53  63 E13       30.21F
Chicago O`Hare PTSUNNY   39  24  55 SW18      29.76F WCI  30
Chicago Midway PTSUNNY   38  25  59 S15G24    29.79F WCI  29
Houston Bush   PTSUNNY   55  47  74 SE10      30.19F
Houston Hobby  LGT RAIN  52  51  97 E10       30.16F FOG
Nashville      FAIR      47  17  30 S9        30.21F
Atlanta        FAIR      53   6  15 NW6       30.24F

$$

GAZ044-118-TXZ119-213-NCZ071-DCZ001-MDZ014-506-PAZ021-071-NJZ106-
NYZ176-178-MAZ106-OHZ011-021-055-MIZ076-KYZ091-ILZ014-INZ047-
MNZ060-ONZ431-192100-

...Gateway Observations for Savannah International...

CITY           SKY/WX    TMP DP  RH WIND       PRES   REMARKS
Savannah Arpt  FAIR      62  12  14 W12       30.24F
Atlanta        FAIR      53   6  15 NW6       30.24F
Charlotte      FAIR      54  19  25 W3        30.17F
Dallas DFW     MOSUNNY   57  39  51 S23       30.07F
Houston Bush   PTSUNNY   55  47  74 SE10      30.19F
Wash National  FAIR      50  11  20 S13       30.05S
Wash Dulles    FAIR      53   8  16 S9        30.03F
Baltimore      FAIR      50  14  23 S8        30.03F
Philadelphia   FAIR      45  16  31 W16       30.03F
Newark         PTSUNNY   38  16  40 SW10      29.98F WCI  31
Laguardia      PTSUNNY   37  15  40 W7        29.97F WCI  32
J F K          PTSUNNY   37  17  44 SW13      30.00F WCI  29
Boston         CLOUDY    33  20  58 W9        29.93R WCI  25
Pittsburg      FAIR      37  16  42 SW12      30.00F WCI  29
Akron          FAIR      33  17  51 SW16      29.96F WCI  23
Cleveland      FAIR      37  19  48 S17G24    29.94F WCI  27
Cincinnati     FAIR      37  20  50 S10G21    30.06F WCI  30
Columbus       FAIR      34  21  59 SW10      30.05F WCI  26
Detroit        PTSUNNY   35  22  58 SW18      29.86F WCI  24
Chicago O`Hare PTSUNNY   39  24  55 SW18      29.76F WCI  30
Minneapolis    PTSUNNY   41  29  62 SW13      29.49S
Indianapolis   PTSUNNY   40  21  46 SW15      29.99F WCI  32
Toronto Canada MOSUNNY   34  21  60 SW16G22   29.80S WCI  23

$$




USA.gov is the U.S. government's official web portal to all federal, state and local government web resources and services.